Wind_Speed
19 20 12 9 8 8 9 11 6 4 4 6 3 4 2 2 4 5 6 9 11 10 11 10 12 15 15 16 17 18 19 19 20 21 23 24 25 26
21 21 18 14 11 10 11 9 6 4 4 4 5 6 3 0 4 5 7 9 11 10 9 10 13 14 14 15 16 18 19 19 20 22 23 24 25 26
22 21 19 16 12 11 12 12 8 6 10 6 7 7 3 0 3 5 7 7 8 8 9 11 11 12 14 15 16 17 17 18 21 22 23 24 25 27
25 21 18 15 13 12 12 10 9 7 9 15 11 7 5 1 2 4 6 7 5 9 11 10 11 13 14 15 17 17 17 18 21 22 24 25 26 28
27 25 22 20 18 16 14 12 10 10 10 13 11 7 5 1 1 4 4 6 4 9 11 11 12 13 15 16 17 16 17 20 21 23 24 26 28 28
24 22 22 21 20 18 15 13 12 13 13 13 11 8 4 1 2 4 4 6 5 9 12 13 14 15 15 19 19 17 19 21 22 24 25 26 27 28
23 21 20 19 20 19 17 15 15 13 13 12 10 8 5 3 3 4 5 8 6 9 15 11 13 14 15 16 17 20 21 21 23 26 26 26 27 28
25 22 22 21 20 19 16 17 14 14 13 10 10 8 6 5 3 2 4 6 6 8 16 15 13 16 16 17 17 21 21 24 26 26 26 26 27 29
28 28 26 22 22 20 19 18 16 14 11 9 11 8 8 5 4 3 2 2 4 10 13 11 16 18 19 19 20 21 24 26 25 27 27 28 28 28
29 31 29 28 23 23 20 18 16 13 12 10 10 10 7 6 5 3 3 4 5 6 7 6 16 21 26 17 17 23 25 26 25 28 28 28 28 29
29 28 29 26 26 24 24 21 17 14 12 12 13 11 9 6 5 3 3 5 3 3 3 9 10 18 20 14 19 24 25 25 28 29 30 30 30 31
28 23 26 25 28 25 21 20 19 16 14 13 11 9 7 4 4 4 4 3 4 5 4 9 13 17 9 11 25 21 21 27 28 29 30 31 31 34
29 26 23 27 26 22 19 15 15 16 13 11 9 8 6 3 1 3 4 3 5 5 6 8 10 13 12 19 23 18 23 29 29 27 29 31 31 29
31 28 28 26 24 21 17 16 18 15 12 10 8 6 4 2 1 4 4 5 6 8 8 7 9 14 18 22 17 27 29 28 24 25 34 33 33 28
32 31 30 26 23 20 19 18 16 12 10 9 8 6 4 1 2 5 6 7 7 4 6 6 10 16 19 19 22 28 31 27 17 33 31 34 35 32
35 34 30 26 23 22 19 16 12 9 9 8 8 7 3 1 2 5 6 9 7 5 9 7 9 14 19 19 22 27 24 20 34 31 31 33 34 30
38 35 31 26 23 22 18 14 11 11 11 10 9 6 3 0 3 5 7 7 8 12 13 11 12 14 16 21 24 21 26 27 29 33 32 32 33 30
38 32 25 21 22 21 17 14 12 12 11 10 8 6 3 1 3 5 6 7 9 11 13 15 17 21 20 19 9 24 22 28 31 32 29 28 31 36
34 27 26 23 22 19 16 16 15 13 11 9 8 5 2 1 3 4 6 7 9 11 13 14 15 16 18 10 21 18 29 29 29 27 29 28 30 35
29 29 26 24 21 18 17 16 14 12 10 9 7 4 2 1 3 5 6 7 10 13 14 14 14 16 19 19 27 34 27 27 28 29 31 33 33 29
24 24 25 23 20 18 17 15 12 12 10 9 6 3 1 2 4 5 6 8 11 11 13 15 17 19 20 23 21 25 28 30 25 29 28 28 26 29
26 26 25 23 20 18 16 14 13 11 11 9 5 2 2 3 5 7 8 10 10 12 13 17 20 19 19 19 22 26 29 32 33 30 24 18 22 16
26 25 23 22 19 17 15 13 11 11 12 9 5 2 3 5 6 7 8 10 11 13 14 19 19 18 19 20 23 25 26 29 28 31 35 28 26 27
Wind_Direction
192 196 195 214 205 199 194 180 159 160 178 195 176 191 156 68 7 5 357 346 349 351 355 2 0 353 352 351 349 347 344 341 341 342 341 338 336 334
197 201 209 209 213 207 199 192 180 151 130 144 176 167 152 135 349 356 347 353 339 358 4 358 352 355 355 353 351 347 342 342 343 342 341 339 337 335
198 198 204 211 205 193 188 180 176 141 129 127 145 161 140 229 343 350 351 348 347 13 360 352 355 356 356 353 349 343 341 341 340 339 337 335 333 331
198 195 197 195 187 180 175 167 159 152 135 142 152 162 172 195 324 353 356 348 8 357 2 1 6 3 356 352 345 341 338 338 335 334 332 329 328 327
196 197 192 189 182 174 169 158 153 140 139 147 145 165 169 119 3 345 355 354 359 1 357 356 357 354 350 349 346 337 335 336 333 328 327 327 325 323
195 193 192 187 181 172 164 154 146 130 128 131 137 149 147 125 59 14 360 357 342 347 348 345 344 340 342 348 345 343 339 336 331 327 325 324 322 322
184 186 184 181 180 176 166 158 149 139 137 138 140 139 136 118 62 9 347 339 328 350 346 338 333 337 341 342 340 340 337 334 330 327 325 324 322 321
175 175 180 179 177 176 168 157 155 149 145 148 146 146 142 128 110 67 19 359 354 345 346 337 338 339 339 337 342 340 337 336 334 330 327 326 323 321
178 173 164 168 167 161 155 151 152 147 149 147 141 142 147 151 141 121 69 13 314 325 343 324 344 337 339 336 340 339 337 334 332 332 331 327 325 323
178 175 173 164 165 164 150 142 134 131 135 128 131 134 135 132 123 110 48 335 309 315 336 295 337 335 336 336 338 338 337 336 334 332 331 330 329 327
177 174 174 162 160 163 156 142 130 125 130 138 130 126 122 116 103 83 22 7 326 309 313 322 328 326 323 327 338 339 341 343 339 339 335 333 333 332
163 161 169 165 163 164 153 146 137 139 140 134 124 121 114 105 81 70 34 347 337 310 328 336 331 345 322 320 332 332 336 335 333 332 331 331 332 330
156 155 160 160 161 163 153 149 144 149 146 137 133 125 130 124 62 19 359 316 282 273 297 339 315 329 325 321 321 326 330 328 326 325 328 330 330 329
154 151 153 154 156 160 152 145 142 141 140 139 130 138 143 155 15 353 326 303 292 278 295 306 290 314 311 313 314 315 321 323 322 325 327 328 329 328
155 150 148 146 144 140 135 136 140 141 145 142 145 148 164 163 19 344 331 328 322 311 317 304 301 308 309 302 305 311 320 327 329 329 328 325 324 327
141 140 142 142 137 133 136 141 142 151 148 149 152 159 160 89 356 348 344 338 338 328 325 318 313 315 314 312 310 309 317 321 324 329 327 323 323 325
137 136 133 133 139 147 145 145 152 153 153 159 156 159 159 174 347 350 342 346 344 333 335 333 326 327 322 313 307 314 318 320 323 323 326 322 320 322
141 139 143 151 152 153 154 155 160 162 163 163 164 169 177 344 335 341 345 343 333 334 328 329 337 341 333 331 306 325 320 317 319 320 320 320 318 322
143 152 154 156 156 158 158 166 167 169 169 171 173 176 175 311 337 339 344 338 334 328 327 333 339 340 332 326 323 328 320 318 319 319 319 318 313 313
156 156 154 159 158 159 165 169 172 171 173 174 178 184 199 289 325 331 333 331 327 326 329 335 335 334 325 318 313 313 330 320 322 320 319 319 314 315
152 153 160 157 157 164 168 167 171 178 178 176 186 193 230 301 313 319 315 316 323 325 324 325 323 322 322 321 315 316 323 330 324 319 318 317 318 317
156 158 159 157 165 166 165 168 169 173 179 183 188 210 254 300 308 314 312 316 318 316 311 318 327 327 326 321 311 313 318 325 340 334 327 319 316 311
157 156 159 166 164 164 167 169 174 181 185 189 198 249 290 288 301 309 312 314 310 315 319 325 327 326 319 317 315 312 317 323 329 329 331 339 329 322
Height
874 877 881 883 885 887 889 891 894 899 906 911 913 913 913 912 910 911 910 907 906 904 902 900 898 895 893 892 889 886 883 879 875 871 866 863 859 855
871 874 878 881 883 885 887 890 892 895 900 908 911 913 913 913 910 910 908 907 905 903 902 899 897 894 892 889 886 884 882 879 876 871 866 862 857 853
868 872 876 879 881 883 886 887 890 893 897 906 908 911 912 914 912 910 908 907 905 903 901 898 895 893 890 887 884 881 879 876 874 870 866 861 856 852
865 870 873 877 880 883 885 887 889 891 893 901 906 908 910 911 910 909 908 907 905 902 900 897 894 892 889 885 882 878 875 873 870 867 863 860 854 849
861 867 870 874 878 880 884 886 889 890 892 896 903 906 908 908 908 908 907 906 904 901 899 897 894 892 888 883 878 875 872 870 868 864 860 856 851 846
860 866 869 872 876 880 883 886 889 890 893 897 901 905 907 907 908 908 908 906 904 902 899 895 892 890 885 881 877 872 869 866 864 861 856 852 848 843
858 864 869 872 875 879 881 885 888 891 894 898 902 904 906 907 908 909 909 907 904 900 897 896 893 890 884 880 876 872 868 863 860 856 852 847 843 839
855 862 866 871 875 879 881 885 889 890 894 898 900 902 905 906 906 907 907 908 905 903 897 895 892 888 884 879 874 870 865 861 855 852 848 843 839 834
852 857 863 869 873 878 883 885 889 891 895 897 898 902 905 905 905 906 906 906 905 902 899 895 891 886 882 877 872 867 863 859 853 848 844 839 834 830
850 855 859 865 871 876 882 885 888 892 895 897 899 901 904 904 904 905 905 905 904 902 901 898 892 885 879 875 871 866 861 856 851 846 840 835 831 825
851 855 860 865 869 875 879 883 887 892 895 897 898 900 902 905 904 904 906 906 904 903 901 898 893 889 879 874 870 864 859 854 848 842 837 832 826 819
851 856 862 865 871 876 879 883 887 892 896 899 899 900 902 905 905 905 905 906 905 901 899 896 892 889 881 873 868 863 859 854 848 841 835 829 822 815
848 855 864 868 873 878 880 884 886 891 896 898 900 901 903 905 906 904 904 904 904 901 899 895 892 890 886 877 868 863 860 852 846 840 833 827 820 815
846 854 863 869 874 879 881 884 888 891 895 899 901 904 905 906 905 904 905 904 901 898 895 893 892 889 885 879 871 861 857 852 845 838 831 822 817 812
848 853 864 870 875 879 882 885 888 891 896 899 901 903 905 905 903 904 903 902 898 896 893 891 890 887 884 877 871 862 854 846 842 837 829 821 814 808
850 859 865 871 874 879 884 886 890 894 896 899 901 902 904 903 904 903 902 900 897 895 892 890 888 885 879 874 869 860 856 850 840 834 828 820 812 807
849 858 864 870 875 880 884 888 892 894 895 898 900 902 903 903 903 902 900 898 896 894 891 888 885 881 877 872 865 861 854 847 841 833 826 818 810 804
847 855 865 871 875 879 884 887 891 893 895 898 900 902 903 903 902 901 899 898 896 893 890 886 881 876 873 869 864 859 853 846 839 831 826 818 807 799
846 858 864 869 874 880 883 886 890 892 895 898 900 902 902 902 902 901 899 897 895 892 889 884 881 878 872 866 861 859 853 843 837 830 824 817 809 798
851 856 862 867 873 879 882 886 889 892 895 898 900 901 901 901 901 900 898 896 894 890 886 883 880 878 875 868 860 851 850 843 836 828 820 812 805 797
851 857 863 868 874 878 882 885 889 893 896 898 900 900 900 900 900 899 897 895 892 889 885 882 880 876 871 866 858 850 844 841 835 828 819 812 802 793
853 858 864 869 874 878 881 885 888 891 894 897 898 898 899 899 899 898 896 893 890 887 884 880 876 872 868 864 857 850 841 834 828 822 818 813 806 796
856 861 866 870 874 878 882 885 888 891 893 895 896 897 897 898 897 895 893 890 888 885 881 877 873 870 866 862 856 848 841 833 826 818 809 806 801 795